Time,TemperatureF,DewpointF,PressureIn,WindDirection,WindDirectionDegrees,WindSpeedMPH,WindSpeedGustMPH,Humidity,HourlyPrecipIn,Conditions,Clouds,dailyrainin,SoftwareType,DateUTC
2015-03-28 00:00:00,39.0,37.7,29.76,NNE,13,2.0,5.0,95,0.00,,---,0.24,VWS V13.01,2015-03-28 04:00:00,
2015-03-28 00:06:00,39.0,37.7,29.76,NNE,13,2.0,4.0,95,0.00,,---,0.00,VWS V13.01,2015-03-28 04:06:00,
2015-03-28 00:11:00,39.0,38.0,29.76,NNE,13,0.0,4.0,96,0.00,,---,0.00,VWS V13.01,2015-03-28 04:11:00,
2015-03-28 00:16:00,39.0,38.0,29.76,North,11,3.0,4.0,96,0.00,,---,0.00,VWS V13.01,2015-03-28 04:16:00,
2015-03-28 00:21:00,39.1,38.1,29.76,North,11,1.0,4.0,96,0.00,,---,0.00,VWS V13.01,2015-03-28 04:21:00,
2015-03-28 00:26:00,39.1,38.1,29.76,North,11,1.0,4.0,96,0.00,,---,0.00,VWS V13.01,2015-03-28 04:26:00,
2015-03-28 00:31:00,39.1,38.1,29.76,North,11,1.0,4.0,96,0.00,,---,0.00,VWS V13.01,2015-03-28 04:31:00,
2015-03-28 00:36:00,39.1,38.1,29.77,North,11,0.0,4.0,96,0.00,,---,0.00,VWS V13.01,2015-03-28 04:36:00,
2015-03-28 00:41:00,39.1,38.1,29.76,North,9,2.0,4.0,96,0.00,,---,0.00,VWS V13.01,2015-03-28 04:41:00,
2015-03-28 00:46:00,39.1,38.1,29.76,North,360,1.0,5.0,96,0.00,,---,0.00,VWS V13.01,2015-03-28 04:46:00,
2015-03-28 00:51:00,39.1,38.1,29.76,North,5,2.0,5.0,96,0.00,,---,0.00,VWS V13.01,2015-03-28 04:51:00,
2015-03-28 00:56:00,39.1,38.1,29.75,North,5,1.0,5.0,96,0.00,,---,0.00,VWS V13.01,2015-03-28 04:56:00,
2015-03-28 01:01:00,39.0,38.0,29.76,North,360,0.0,5.0,96,0.00,,---,0.00,VWS V13.01,2015-03-28 05:01:00,
2015-03-28 01:06:00,39.0,38.0,29.76,North,360,1.0,4.0,96,0.00,,---,0.00,VWS V13.01,2015-03-28 05:06:00,
2015-03-28 01:11:00,38.9,37.9,29.76,North,360,3.0,4.0,96,0.00,,---,0.00,VWS V13.01,2015-03-28 05:11:00,
2015-03-28 01:16:00,38.9,37.9,29.75,North,355,4.0,7.0,96,0.00,,---,0.00,VWS V13.01,2015-03-28 05:16:00,
2015-03-28 01:21:00,38.9,37.9,29.75,North,351,3.0,7.0,96,0.00,,---,0.00,VWS V13.01,2015-03-28 05:21:00,
2015-03-28 01:26:00,38.8,37.8,29.75,NNW,348,0.0,8.0,96,0.00,,---,0.00,VWS V13.01,2015-03-28 05:26:00,
2015-03-28 01:32:00,38.8,37.8,29.75,NNW,348,1.0,9.0,96,0.00,,---,0.00,VWS V13.01,2015-03-28 05:32:00,
2015-03-28 01:37:00,38.8,37.8,29.75,NNW,348,3.0,4.0,96,0.00,,---,0.00,VWS V13.01,2015-03-28 05:37:00,
2015-03-28 01:42:00,38.8,37.8,29.75,NNW,348,0.0,5.0,96,0.00,,---,0.00,VWS V13.01,2015-03-28 05:42:00,
2015-03-28 01:47:00,38.8,37.8,29.76,NNW,347,3.0,5.0,96,0.00,,---,0.00,VWS V13.01,2015-03-28 05:47:00,
2015-03-28 01:52:00,38.8,37.5,29.75,NNW,336,3.0,6.0,95,0.00,,---,0.00,VWS V13.01,2015-03-28 05:52:00,
2015-03-28 01:57:00,38.8,37.5,29.75,NNW,336,3.0,8.0,95,0.00,,---,0.00,VWS V13.01,2015-03-28 05:57:00,
2015-03-28 02:02:00,38.8,37.5,29.75,NNW,333,3.0,4.0,95,0.00,,---,0.00,VWS V13.01,2015-03-28 06:02:00,
2015-03-28 02:07:00,38.8,37.5,29.76,NNW,334,4.0,11.0,95,0.00,,---,0.00,VWS V13.01,2015-03-28 06:07:00,
2015-03-28 02:12:00,38.9,37.6,29.76,NNW,334,1.0,11.0,95,0.00,,---,0.00,VWS V13.01,2015-03-28 06:12:00,
2015-03-28 02:17:00,38.9,37.3,29.76,NNW,334,3.0,11.0,94,0.00,,---,0.00,VWS V13.01,2015-03-28 06:17:00,
2015-03-28 02:22:00,39.0,37.2,29.76,NNW,336,1.0,11.0,93,0.00,,---,0.00,VWS V13.01,2015-03-28 06:22:00,
2015-03-28 02:27:00,39.1,37.0,29.76,NNW,329,4.0,11.0,92,0.00,,---,0.00,VWS V13.01,2015-03-28 06:27:00,
2015-03-28 02:32:00,39.1,36.7,29.76,NNW,331,4.0,4.0,91,0.00,,---,0.00,VWS V13.01,2015-03-28 06:32:00,
2015-03-28 02:37:00,39.2,36.5,29.75,NNW,332,5.0,8.0,90,0.00,,---,0.00,VWS V13.01,2015-03-28 06:37:00,
2015-03-28 02:42:00,39.2,36.2,29.75,NW,325,4.0,10.0,89,0.00,,---,0.00,VWS V13.01,2015-03-28 06:42:00,
2015-03-28 02:47:00,39.2,36.0,29.75,NNW,347,5.0,13.0,88,0.00,,---,0.00,VWS V13.01,2015-03-28 06:47:00,
2015-03-28 02:52:00,39.1,35.6,29.76,NNW,338,9.0,13.0,87,0.00,,---,0.00,VWS V13.01,2015-03-28 06:52:00,
2015-03-28 02:57:00,39.1,35.0,29.76,NNW,327,5.0,13.0,85,0.00,,---,0.00,VWS V13.01,2015-03-28 06:57:00,
2015-03-28 03:03:00,39.1,34.7,29.76,NNW,342,5.0,7.0,84,0.00,,---,0.00,VWS V13.01,2015-03-28 07:03:00,
2015-03-28 03:08:00,39.2,34.5,29.75,NNW,345,6.0,11.0,83,0.00,,---,0.00,VWS V13.01,2015-03-28 07:08:00,
2015-03-28 03:13:00,39.2,34.2,29.75,NNW,336,4.0,12.0,82,0.00,,---,0.00,VWS V13.01,2015-03-28 07:13:00,
2015-03-28 03:18:00,39.2,34.2,29.76,NNW,327,5.0,12.0,82,0.00,,---,0.00,VWS V13.01,2015-03-28 07:18:00,
2015-03-28 03:23:00,39.1,34.1,29.76,NW,325,4.0,12.0,82,0.00,,---,0.00,VWS V13.01,2015-03-28 07:23:00,
2015-03-28 03:28:00,38.9,33.6,29.75,NNW,346,4.0,12.0,81,0.00,,---,0.00,VWS V13.01,2015-03-28 07:28:00,
2015-03-28 03:33:00,38.9,33.6,29.75,NNW,342,6.0,6.0,81,0.00,,---,0.00,VWS V13.01,2015-03-28 07:33:00,
2015-03-28 03:38:00,38.8,33.5,29.76,NW,323,5.0,12.0,81,0.00,,---,0.00,VWS V13.01,2015-03-28 07:38:00,
2015-03-28 03:43:00,38.7,33.1,29.76,NNW,327,3.0,12.0,80,0.00,,---,0.00,VWS V13.01,2015-03-28 07:43:00,
2015-03-28 03:48:00,38.6,33.0,29.76,NNW,333,6.0,12.0,80,0.00,,---,0.00,VWS V13.01,2015-03-28 07:48:00,
2015-03-28 03:53:00,38.6,32.7,29.76,NNW,336,3.0,12.0,79,0.00,,---,0.00,VWS V13.01,2015-03-28 07:53:00,
2015-03-28 03:58:00,38.5,32.6,29.76,NNW,344,6.0,13.0,79,0.00,,---,0.00,VWS V13.01,2015-03-28 07:58:00,
2015-03-28 04:03:00,38.4,32.2,29.76,NNW,338,6.0,11.0,78,0.00,,---,0.00,VWS V13.01,2015-03-28 08:03:00,
2015-03-28 04:08:00,38.4,31.8,29.75,NW,325,4.0,11.0,77,0.00,,---,0.00,VWS V13.01,2015-03-28 08:08:00,
2015-03-28 04:13:00,38.3,31.7,29.75,NW,326,9.0,14.0,77,0.00,,---,0.00,VWS V13.01,2015-03-28 08:13:00,
2015-03-28 04:19:00,38.3,31.7,29.75,NNW,339,6.0,14.0,77,0.00,,---,0.00,VWS V13.01,2015-03-28 08:19:00,
2015-03-28 04:24:00,38.2,31.3,29.76,NNW,337,4.0,15.0,76,0.00,,---,0.00,VWS V13.01,2015-03-28 08:24:00,
2015-03-28 04:29:00,38.1,31.2,29.76,NNW,336,7.0,17.0,76,0.00,,---,0.00,VWS V13.01,2015-03-28 08:29:00,
2015-03-28 04:34:00,38.1,30.9,29.76,North,355,6.0,12.0,75,0.00,,---,0.00,VWS V13.01,2015-03-28 08:34:00,
2015-03-28 04:39:00,38.0,30.8,29.76,NW,321,6.0,12.0,75,0.00,,---,0.00,VWS V13.01,2015-03-28 08:39:00,
2015-03-28 04:44:00,37.9,30.4,29.76,NNW,340,5.0,18.0,74,0.00,,---,0.00,VWS V13.01,2015-03-28 08:44:00,
2015-03-28 04:49:00,37.8,30.3,29.76,North,360,11.0,18.0,74,0.00,,---,0.00,VWS V13.01,2015-03-28 08:49:00,
2015-03-28 04:54:00,37.8,30.3,29.77,NNW,328,14.0,18.0,74,0.00,,---,0.00,VWS V13.01,2015-03-28 08:54:00,
2015-03-28 04:59:00,37.7,30.2,29.77,NNW,329,9.0,18.0,74,0.00,,---,0.00,VWS V13.01,2015-03-28 08:59:00,
2015-03-28 05:04:00,37.6,30.1,29.77,NNW,346,11.0,16.0,74,0.00,,---,0.00,VWS V13.01,2015-03-28 09:04:00,
2015-03-28 05:09:00,37.5,30.0,29.77,North,349,10.0,16.0,74,0.00,,---,0.00,VWS V13.01,2015-03-28 09:09:00,
2015-03-28 05:14:00,37.4,29.5,29.77,NW,314,6.0,20.0,73,0.00,,---,0.00,VWS V13.01,2015-03-28 09:14:00,
2015-03-28 05:19:00,37.4,29.5,29.77,NW,321,9.0,20.0,73,0.00,,---,0.00,VWS V13.01,2015-03-28 09:19:00,
2015-03-28 05:24:00,37.2,29.4,29.78,North,350,12.0,20.0,73,0.00,,---,0.00,VWS V13.01,2015-03-28 09:24:00,
2015-03-28 05:29:00,37.1,28.9,29.78,NW,313,7.0,20.0,72,0.00,,---,0.00,VWS V13.01,2015-03-28 09:29:00,
2015-03-28 05:34:00,37.0,28.5,29.78,NW,321,6.0,13.0,71,0.00,,---,0.00,VWS V13.01,2015-03-28 09:34:00,
2015-03-28 05:39:00,36.9,28.4,29.78,NW,325,12.0,17.0,71,0.00,,---,0.00,VWS V13.01,2015-03-28 09:39:00,
2015-03-28 05:45:00,36.9,28.4,29.79,NNW,342,11.0,17.0,71,0.00,,---,0.00,VWS V13.01,2015-03-28 09:45:00,
2015-03-28 05:50:00,36.8,28.3,29.80,North,360,13.0,17.0,71,0.00,,---,0.00,VWS V13.01,2015-03-28 09:50:00,
2015-03-28 05:55:00,36.8,28.3,29.80,NNW,331,5.0,17.0,71,0.00,,---,0.00,VWS V13.01,2015-03-28 09:55:00,
2015-03-28 06:00:00,36.7,28.5,29.80,NNW,331,13.0,17.0,72,0.00,,---,0.00,VWS V13.01,2015-03-28 10:00:00,
2015-03-28 06:05:00,36.6,28.8,29.79,NW,318,10.0,16.0,73,0.00,,---,0.00,VWS V13.01,2015-03-28 10:05:00,
2015-03-28 06:10:00,36.5,29.0,29.80,NW,326,10.0,16.0,74,0.00,,---,0.00,VWS V13.01,2015-03-28 10:10:00,
2015-03-28 06:15:00,36.4,28.9,29.80,NNW,344,6.0,16.0,74,0.00,,---,0.00,VWS V13.01,2015-03-28 10:15:00,
2015-03-28 06:20:00,36.2,28.7,29.81,NNW,336,8.0,20.0,74,0.00,,---,0.00,VWS V13.01,2015-03-28 10:20:00,
2015-03-28 06:25:00,36.2,28.7,29.81,NW,315,9.0,20.0,74,0.00,,---,0.00,VWS V13.01,2015-03-28 10:25:00,
2015-03-28 06:30:00,36.1,28.3,29.81,NNW,342,6.0,20.0,73,0.00,,---,0.00,VWS V13.01,2015-03-28 10:30:00,
2015-03-28 06:35:00,36.1,28.3,29.81,NNW,331,5.0,14.0,73,0.00,,---,0.00,VWS V13.01,2015-03-28 10:35:00,
2015-03-28 06:40:00,36.0,27.9,29.81,NW,315,6.0,14.0,72,0.00,,---,0.00,VWS V13.01,2015-03-28 10:40:00,
2015-03-28 06:45:00,35.9,27.8,29.81,WNW,303,9.0,14.0,72,0.00,,---,0.00,VWS V13.01,2015-03-28 10:45:00,
2015-03-28 06:50:00,35.9,26.7,29.82,NNW,334,6.0,16.0,69,0.00,,---,0.00,VWS V13.01,2015-03-28 10:50:00,
2015-03-28 06:55:00,35.8,26.6,29.82,NW,315,6.0,16.0,69,0.00,,---,0.00,VWS V13.01,2015-03-28 10:55:00,
2015-03-28 07:00:00,35.7,25.8,29.83,NNW,341,8.0,20.0,67,0.00,,---,0.00,VWS V13.01,2015-03-28 11:00:00,
2015-03-28 07:05:00,35.7,25.8,29.83,WNW,300,4.0,18.0,67,0.00,,---,0.00,VWS V13.01,2015-03-28 11:05:00,
2015-03-28 07:11:00,35.6,25.7,29.83,WNW,294,8.0,18.0,67,0.00,,---,0.00,VWS V13.01,2015-03-28 11:11:00,
2015-03-28 07:16:00,35.4,25.9,29.83,NNW,329,5.0,18.0,68,0.00,,---,0.00,VWS V13.01,2015-03-28 11:16:00,
2015-03-28 07:21:00,35.2,25.7,29.83,NW,325,4.0,18.0,68,0.00,,---,0.00,VWS V13.01,2015-03-28 11:21:00,
2015-03-28 07:26:00,35.0,25.9,29.83,WNW,288,4.0,18.0,69,0.00,,---,0.00,VWS V13.01,2015-03-28 11:26:00,
2015-03-28 07:31:00,34.8,25.7,29.84,NNW,331,9.0,18.0,69,0.00,,---,0.00,VWS V13.01,2015-03-28 11:31:00,
2015-03-28 07:36:00,34.7,25.9,29.84,WSW,250,11.0,12.0,70,0.00,,---,0.00,VWS V13.01,2015-03-28 11:36:00,
2015-03-28 07:41:00,34.4,25.6,29.84,NW,312,11.0,13.0,70,0.00,,---,0.00,VWS V13.01,2015-03-28 11:41:00,
2015-03-28 07:46:00,34.4,25.6,29.85,NW,322,6.0,15.0,70,0.00,,---,0.00,VWS V13.01,2015-03-28 11:46:00,
2015-03-28 07:51:00,34.4,25.6,29.85,NW,325,5.0,15.0,70,0.00,,---,0.00,VWS V13.01,2015-03-28 11:51:00,
2015-03-28 07:56:00,34.4,25.6,29.85,NW,304,12.0,17.0,70,0.00,,---,0.00,VWS V13.01,2015-03-28 11:56:00,
2015-03-28 08:01:00,34.4,25.6,29.85,NW,317,7.0,22.0,70,0.00,,---,0.00,VWS V13.01,2015-03-28 12:01:00,
2015-03-28 08:06:00,34.4,25.6,29.85,NW,309,11.0,17.0,70,0.00,,---,0.00,VWS V13.01,2015-03-28 12:06:00,
2015-03-28 08:11:00,34.7,25.6,29.85,NW,315,6.0,18.0,69,0.00,,---,0.00,VWS V13.01,2015-03-28 12:11:00,
2015-03-28 08:16:00,34.9,25.8,29.85,NW,325,7.0,18.0,69,0.00,,---,0.00,VWS V13.01,2015-03-28 12:16:00,
2015-03-28 08:21:00,35.2,26.4,29.86,NW,325,4.0,18.0,70,0.00,,---,0.00,VWS V13.01,2015-03-28 12:21:00,
2015-03-28 08:26:00,35.4,26.6,29.86,NW,304,7.0,18.0,70,0.00,,---,0.00,VWS V13.01,2015-03-28 12:26:00,
2015-03-28 08:31:00,35.7,26.5,29.86,NNW,346,10.0,20.0,69,0.00,,---,0.00,VWS V13.01,2015-03-28 12:31:00,
2015-03-28 08:37:00,35.8,26.6,29.87,NW,306,14.0,19.0,69,0.00,,---,0.00,VWS V13.01,2015-03-28 12:37:00,
2015-03-28 08:42:00,35.8,26.6,29.87,NW,315,14.0,20.0,69,0.00,,---,0.00,VWS V13.01,2015-03-28 12:42:00,
2015-03-28 08:47:00,35.5,26.4,29.87,WNW,295,11.0,24.0,69,0.00,,---,0.00,VWS V13.01,2015-03-28 12:47:00,
2015-03-28 08:52:00,35.5,26.4,29.87,NW,309,11.0,24.0,69,0.00,,---,0.00,VWS V13.01,2015-03-28 12:52:00,
2015-03-28 08:57:00,35.5,26.4,29.88,NNE,14,7.0,24.0,69,0.00,,---,0.00,VWS V13.01,2015-03-28 12:57:00,
2015-03-28 09:02:00,35.5,26.4,29.88,NW,319,18.0,18.0,69,0.00,,---,0.00,VWS V13.01,2015-03-28 13:02:00,
2015-03-28 09:07:00,35.8,26.3,29.88,NW,322,13.0,20.0,68,0.00,,---,0.00,VWS V13.01,2015-03-28 13:07:00,
2015-03-28 09:12:00,36.1,26.6,29.88,WNW,292,23.0,23.0,68,0.00,,---,0.00,VWS V13.01,2015-03-28 13:12:00,
2015-03-28 09:17:00,35.9,26.0,29.88,West,280,11.0,27.0,67,0.00,,---,0.00,VWS V13.01,2015-03-28 13:17:00,
2015-03-28 09:22:00,36.0,26.1,29.88,NW,307,4.0,27.0,67,0.00,,---,0.00,VWS V13.01,2015-03-28 13:22:00,
2015-03-28 09:27:00,36.1,25.9,29.89,NW,310,10.0,27.0,66,0.00,,---,0.00,VWS V13.01,2015-03-28 13:27:00,
2015-03-28 09:32:00,35.8,25.2,29.89,WNW,288,6.0,23.0,65,0.00,,---,0.00,VWS V13.01,2015-03-28 13:32:00,
2015-03-28 09:37:00,35.4,24.8,29.89,West,279,4.0,23.0,65,0.00,,---,0.00,VWS V13.01,2015-03-28 13:37:00,
2015-03-28 09:42:00,35.4,25.2,29.90,NW,309,18.0,23.0,66,0.00,,---,0.00,VWS V13.01,2015-03-28 13:42:00,
2015-03-28 09:47:00,35.2,24.6,29.90,WNW,299,22.0,23.0,65,0.00,,---,0.00,VWS V13.01,2015-03-28 13:47:00,
2015-03-28 09:52:00,35.1,24.5,29.91,NNW,331,11.0,23.0,65,0.00,,---,0.00,VWS V13.01,2015-03-28 13:52:00,
2015-03-28 09:57:00,35.1,24.5,29.91,WNW,283,10.0,23.0,65,0.00,,---,0.00,VWS V13.01,2015-03-28 13:57:00,
2015-03-28 10:03:00,35.3,25.1,29.91,WNW,294,7.0,13.0,66,0.00,,---,0.00,VWS V13.01,2015-03-28 14:03:00,
2015-03-28 10:08:00,35.1,24.5,29.92,NW,323,11.0,22.0,65,0.00,,---,0.00,VWS V13.01,2015-03-28 14:08:00,
2015-03-28 10:13:00,35.1,24.9,29.91,WNW,302,7.0,22.0,66,0.00,,---,0.00,VWS V13.01,2015-03-28 14:13:00,
2015-03-28 10:18:00,35.5,24.9,29.92,NW,321,5.0,22.0,65,0.00,,---,0.00,VWS V13.01,2015-03-28 14:18:00,
2015-03-28 10:23:00,35.3,24.7,29.92,NNW,340,11.0,22.0,65,0.00,,---,0.00,VWS V13.01,2015-03-28 14:23:00,
2015-03-28 10:28:00,35.3,24.4,29.92,NW,319,9.0,22.0,64,0.00,,---,0.00,VWS V13.01,2015-03-28 14:28:00,
2015-03-28 10:33:00,34.9,24.0,29.92,West,272,10.0,19.0,64,0.00,,---,0.00,VWS V13.01,2015-03-28 14:33:00,
2015-03-28 10:38:00,34.5,24.0,29.92,WNW,303,5.0,21.0,65,0.00,,---,0.00,VWS V13.01,2015-03-28 14:38:00,
2015-03-28 10:43:00,34.8,24.6,29.92,NW,323,11.0,22.0,66,0.00,,---,0.00,VWS V13.01,2015-03-28 14:43:00,
2015-03-28 10:48:00,34.5,24.3,29.92,NNW,346,12.0,22.0,66,0.00,,---,0.00,VWS V13.01,2015-03-28 14:48:00,
2015-03-28 10:53:00,34.4,24.6,29.92,NNW,331,12.0,22.0,67,0.00,,---,0.00,VWS V13.01,2015-03-28 14:53:00,
2015-03-28 10:58:00,34.4,24.6,29.92,West,277,6.0,22.0,67,0.00,,---,0.00,VWS V13.01,2015-03-28 14:58:00,
2015-03-28 11:03:00,34.3,24.5,29.92,NW,323,13.0,21.0,67,0.00,,---,0.00,VWS V13.01,2015-03-28 15:03:00,
2015-03-28 11:08:00,34.4,23.9,29.92,NNW,331,21.0,22.0,65,0.00,,---,0.00,VWS V13.01,2015-03-28 15:08:00,
2015-03-28 11:13:00,34.8,23.9,29.92,NW,307,10.0,24.0,64,0.00,,---,0.00,VWS V13.01,2015-03-28 15:13:00,
2015-03-28 11:18:00,34.7,23.4,29.92,WNW,288,15.0,24.0,63,0.00,,---,0.00,VWS V13.01,2015-03-28 15:18:00,
2015-03-28 11:23:00,34.4,21.6,29.92,North,355,15.0,27.0,59,0.00,,---,0.00,VWS V13.01,2015-03-28 15:23:00,
2015-03-28 11:29:00,34.8,22.0,29.92,NW,314,9.0,27.0,59,0.00,,---,0.00,VWS V13.01,2015-03-28 15:29:00,
2015-03-28 11:34:00,35.7,22.0,29.92,North,355,7.0,15.0,57,0.00,,---,0.00,VWS V13.01,2015-03-28 15:34:00,
2015-03-28 11:39:00,36.4,22.6,29.92,North,350,16.0,21.0,57,0.00,,---,0.00,VWS V13.01,2015-03-28 15:39:00,
2015-03-28 11:44:00,36.2,21.6,29.92,NW,321,11.0,22.0,55,0.00,,---,0.00,VWS V13.01,2015-03-28 15:44:00,
2015-03-28 11:49:00,36.5,21.9,29.92,NW,325,6.0,23.0,55,0.00,,---,0.00,VWS V13.01,2015-03-28 15:49:00,
2015-03-28 11:54:00,36.7,21.6,29.92,NW,315,12.0,23.0,54,0.00,,---,0.00,VWS V13.01,2015-03-28 15:54:00,
2015-03-28 11:59:00,37.1,22.0,29.91,NNW,333,11.0,23.0,54,0.00,,---,0.00,VWS V13.01,2015-03-28 15:59:00,
2015-03-28 12:04:00,37.1,21.6,29.91,NW,311,8.0,19.0,53,0.00,,---,0.00,VWS V13.01,2015-03-28 16:04:00,
2015-03-28 12:09:00,37.1,21.6,29.91,West,276,6.0,20.0,53,0.00,,---,0.00,VWS V13.01,2015-03-28 16:09:00,
2015-03-28 12:14:00,36.8,20.8,29.91,NW,322,6.0,23.0,52,0.00,,---,0.00,VWS V13.01,2015-03-28 16:14:00,
2015-03-28 12:19:00,37.0,21.9,29.91,WNW,302,7.0,23.0,54,0.00,,---,0.00,VWS V13.01,2015-03-28 16:19:00,
2015-03-28 12:24:00,37.6,22.0,29.92,NW,306,12.0,23.0,53,0.00,,---,0.00,VWS V13.01,2015-03-28 16:24:00,
2015-03-28 12:29:00,37.9,21.9,29.91,WSW,251,13.0,23.0,52,0.00,,---,0.00,VWS V13.01,2015-03-28 16:29:00,
2015-03-28 12:34:00,38.3,22.2,29.92,WNW,282,10.0,14.0,52,0.00,,---,0.00,VWS V13.01,2015-03-28 16:34:00,
2015-03-28 12:39:00,38.7,22.6,29.92,WNW,291,11.0,20.0,52,0.00,,---,0.00,VWS V13.01,2015-03-28 16:39:00,
2015-03-28 12:44:00,39.0,22.9,29.92,NNW,329,17.0,20.0,52,0.00,,---,0.00,VWS V13.01,2015-03-28 16:44:00,
2015-03-28 12:49:00,38.5,22.0,29.92,West,281,10.0,20.0,51,0.00,,---,0.00,VWS V13.01,2015-03-28 16:49:00,
2015-03-28 12:55:00,38.4,21.4,29.92,NNW,340,16.0,21.0,50,0.00,,---,0.00,VWS V13.01,2015-03-28 16:55:00,
2015-03-28 13:00:00,37.6,20.7,29.92,WNW,286,13.0,21.0,50,0.00,,---,0.00,VWS V13.01,2015-03-28 17:00:00,
2015-03-28 13:05:00,38.2,22.1,29.92,NNW,336,7.0,16.0,52,0.00,,---,0.00,VWS V13.01,2015-03-28 17:05:00,
2015-03-28 13:10:00,39.3,22.7,29.92,NNW,333,16.0,16.0,51,0.00,,---,0.00,VWS V13.01,2015-03-28 17:10:00,
2015-03-28 13:15:00,38.9,21.4,29.92,NW,309,9.0,16.0,49,0.00,,---,0.00,VWS V13.01,2015-03-28 17:15:00,
2015-03-28 13:20:00,38.1,20.6,29.92,NW,310,10.0,18.0,49,0.00,,---,0.00,VWS V13.01,2015-03-28 17:20:00,
2015-03-28 13:25:00,37.3,20.9,29.92,WNW,298,12.0,19.0,51,0.00,,---,0.00,VWS V13.01,2015-03-28 17:25:00,
2015-03-28 13:30:00,38.0,22.0,29.92,NW,323,6.0,19.0,52,0.00,,---,0.00,VWS V13.01,2015-03-28 17:30:00,
2015-03-28 13:35:00,38.2,21.2,29.92,NW,312,7.0,17.0,50,0.00,,---,0.00,VWS V13.01,2015-03-28 17:35:00,
2015-03-28 13:40:00,37.3,20.9,29.93,NW,310,7.0,19.0,51,0.00,,---,0.00,VWS V13.01,2015-03-28 17:40:00,
2015-03-28 13:45:00,36.3,20.4,29.93,NNW,331,11.0,19.0,52,0.00,,---,0.00,VWS V13.01,2015-03-28 17:45:00,
2015-03-28 13:50:00,36.0,21.0,29.93,NW,326,7.0,19.0,54,0.00,,---,0.00,VWS V13.01,2015-03-28 17:50:00,
2015-03-28 13:55:00,35.6,21.0,29.94,NW,320,13.0,19.0,55,0.00,,---,0.00,VWS V13.01,2015-03-28 17:55:00,
2015-03-28 14:00:00,35.2,21.5,29.94,NW,311,18.0,20.0,57,0.00,,---,0.00,VWS V13.01,2015-03-28 18:00:00,
2015-03-28 14:05:00,35.6,21.9,29.94,WNW,296,10.0,19.0,57,0.00,,---,0.00,VWS V13.01,2015-03-28 18:05:00,
2015-03-28 14:10:00,35.9,21.8,29.94,WNW,295,9.0,20.0,56,0.00,,---,0.00,VWS V13.01,2015-03-28 18:10:00,
2015-03-28 14:15:00,35.3,21.6,29.94,NW,311,5.0,20.0,57,0.00,,---,0.00,VWS V13.01,2015-03-28 18:15:00,
2015-03-28 14:21:00,35.4,21.7,29.94,West,280,7.0,20.0,57,0.00,,---,0.00,VWS V13.01,2015-03-28 18:21:00,
2015-03-28 14:26:00,35.1,21.8,29.94,NNE,20,11.0,20.0,58,0.00,,---,0.00,VWS V13.01,2015-03-28 18:26:00,
2015-03-28 14:31:00,34.8,21.5,29.94,WNW,284,9.0,20.0,58,0.00,,---,0.00,VWS V13.01,2015-03-28 18:31:00,
2015-03-28 14:36:00,34.4,21.2,29.94,NW,317,7.0,19.0,58,0.00,,---,0.00,VWS V13.01,2015-03-28 18:36:00,
2015-03-28 14:41:00,34.1,21.3,29.94,West,281,6.0,21.0,59,0.00,,---,0.00,VWS V13.01,2015-03-28 18:41:00,
2015-03-28 14:46:00,34.4,22.0,29.94,WNW,292,14.0,21.0,60,0.00,,---,0.00,VWS V13.01,2015-03-28 18:46:00,
2015-03-28 14:51:00,34.4,22.0,29.94,NNW,327,9.0,21.0,60,0.00,,---,0.00,VWS V13.01,2015-03-28 18:51:00,
2015-03-28 14:56:00,34.1,21.7,29.95,WNW,289,10.0,23.0,60,0.00,,---,0.00,VWS V13.01,2015-03-28 18:56:00,
2015-03-28 15:01:00,34.4,22.0,29.94,NW,311,11.0,23.0,60,0.00,,---,0.00,VWS V13.01,2015-03-28 19:01:00,
2015-03-28 15:06:00,34.4,22.0,29.95,North,355,11.0,15.0,60,0.00,,---,0.00,VWS V13.01,2015-03-28 19:06:00,
2015-03-28 15:11:00,34.1,21.7,29.95,WNW,290,11.0,20.0,60,0.00,,---,0.00,VWS V13.01,2015-03-28 19:11:00,
2015-03-28 15:16:00,34.4,22.0,29.95,WNW,291,11.0,20.0,60,0.00,,---,0.00,VWS V13.01,2015-03-28 19:16:00,
2015-03-28 15:21:00,35.0,22.5,29.95,NW,323,15.0,20.0,60,0.00,,---,0.00,VWS V13.01,2015-03-28 19:21:00,
2015-03-28 15:26:00,34.7,22.2,29.95,NNW,329,14.0,22.0,60,0.00,,---,0.00,VWS V13.01,2015-03-28 19:26:00,
2015-03-28 15:31:00,34.3,22.3,29.96,NW,315,7.0,22.0,61,0.00,,---,0.00,VWS V13.01,2015-03-28 19:31:00,
2015-03-28 15:36:00,34.4,22.4,29.95,NW,306,9.0,18.0,61,0.00,,---,0.00,VWS V13.01,2015-03-28 19:36:00,
2015-03-28 15:41:00,34.5,22.1,29.95,NW,323,7.0,21.0,60,0.00,,---,0.00,VWS V13.01,2015-03-28 19:41:00,
2015-03-28 15:47:00,34.4,21.6,29.96,NW,317,3.0,21.0,59,0.00,,---,0.00,VWS V13.01,2015-03-28 19:47:00,
2015-03-28 15:52:00,34.6,21.8,29.96,NNW,332,11.0,21.0,59,0.00,,---,0.00,VWS V13.01,2015-03-28 19:52:00,
2015-03-28 15:57:00,34.8,22.3,29.96,WNW,296,15.0,21.0,60,0.00,,---,0.00,VWS V13.01,2015-03-28 19:57:00,
2015-03-28 16:02:00,35.3,22.0,29.96,NW,304,10.0,21.0,58,0.00,,---,0.00,VWS V13.01,2015-03-28 20:02:00,
2015-03-28 16:07:00,36.2,22.0,29.96,WNW,300,4.0,22.0,56,0.00,,---,0.00,VWS V13.01,2015-03-28 20:07:00,
2015-03-28 16:12:00,36.0,21.8,29.96,NW,313,4.0,22.0,56,0.00,,---,0.00,VWS V13.01,2015-03-28 20:12:00,
2015-03-28 16:17:00,35.5,21.4,29.97,NNW,336,6.0,22.0,56,0.00,,---,0.00,VWS V13.01,2015-03-28 20:17:00,
2015-03-28 16:22:00,35.1,21.4,29.97,WNW,288,7.0,22.0,57,0.00,,---,0.00,VWS V13.01,2015-03-28 20:22:00,
2015-03-28 16:27:00,34.8,21.1,29.97,West,276,7.0,22.0,57,0.00,,---,0.00,VWS V13.01,2015-03-28 20:27:00,
2015-03-28 16:32:00,34.7,21.5,29.97,NW,317,10.0,10.0,58,0.00,,---,0.00,VWS V13.01,2015-03-28 20:32:00,
2015-03-28 16:37:00,34.4,22.0,29.97,NW,304,14.0,18.0,60,0.00,,---,0.00,VWS V13.01,2015-03-28 20:37:00,
2015-03-28 16:42:00,34.7,22.2,29.98,NW,315,16.0,18.0,60,0.00,,---,0.00,VWS V13.01,2015-03-28 20:42:00,
2015-03-28 16:47:00,34.7,21.5,29.98,WNW,285,12.0,20.0,58,0.00,,---,0.00,VWS V13.01,2015-03-28 20:47:00,
2015-03-28 16:52:00,34.4,20.8,29.98,WNW,286,14.0,20.0,57,0.00,,---,0.00,VWS V13.01,2015-03-28 20:52:00,
2015-03-28 16:57:00,34.5,20.4,29.98,West,265,11.0,21.0,56,0.00,,---,0.00,VWS V13.01,2015-03-28 20:57:00,
2015-03-28 17:02:00,34.8,21.1,29.98,NW,311,10.0,17.0,57,0.00,,---,0.00,VWS V13.01,2015-03-28 21:02:00,
2015-03-28 17:07:00,34.8,20.7,29.99,NW,315,11.0,19.0,56,0.00,,---,0.00,VWS V13.01,2015-03-28 21:07:00,
2015-03-28 17:13:00,34.4,20.3,29.99,WSW,242,6.0,19.0,56,0.00,,---,0.00,VWS V13.01,2015-03-28 21:13:00,
2015-03-28 17:18:00,34.4,21.2,30.00,NW,309,10.0,19.0,58,0.00,,---,0.00,VWS V13.01,2015-03-28 21:18:00,
2015-03-28 17:23:00,34.4,21.2,30.00,WNW,296,15.0,19.0,58,0.00,,---,0.00,VWS V13.01,2015-03-28 21:23:00,
2015-03-28 17:28:00,34.4,21.6,30.00,NNW,335,11.0,19.0,59,0.00,,---,0.00,VWS V13.01,2015-03-28 21:28:00,
2015-03-28 17:33:00,34.4,21.2,30.00,NNW,342,19.0,25.0,58,0.00,,---,0.00,VWS V13.01,2015-03-28 21:33:00,
2015-03-28 17:38:00,34.1,21.3,30.01,WNW,284,6.0,25.0,59,0.00,,---,0.00,VWS V13.01,2015-03-28 21:38:00,
2015-03-28 17:43:00,33.9,21.5,30.02,WNW,300,16.0,25.0,60,0.00,,---,0.00,VWS V13.01,2015-03-28 21:43:00,
2015-03-28 17:48:00,33.6,21.2,30.02,WNW,293,12.0,25.0,60,0.00,,---,0.00,VWS V13.01,2015-03-28 21:48:00,
2015-03-28 17:53:00,33.4,21.4,30.02,NW,309,7.0,25.0,61,0.00,,---,0.00,VWS V13.01,2015-03-28 21:53:00,
2015-03-28 17:58:00,33.3,21.3,30.02,NW,317,10.0,25.0,61,0.00,,---,0.00,VWS V13.01,2015-03-28 21:58:00,
2015-03-28 18:03:00,33.3,21.7,30.03,NW,315,7.0,14.0,62,0.00,,---,0.00,VWS V13.01,2015-03-28 22:03:00,
2015-03-28 18:08:00,33.3,22.5,30.04,West,260,6.0,18.0,64,0.00,,---,0.00,VWS V13.01,2015-03-28 22:08:00,
2015-03-28 18:13:00,32.9,21.7,30.03,NW,324,10.0,19.0,63,0.00,,---,0.00,VWS V13.01,2015-03-28 22:13:00,
2015-03-28 18:18:00,32.9,22.1,30.04,West,268,7.0,19.0,64,0.00,,---,0.00,VWS V13.01,2015-03-28 22:18:00,
2015-03-28 18:23:00,32.8,22.3,30.04,WNW,293,5.0,19.0,65,0.00,,---,0.00,VWS V13.01,2015-03-28 22:23:00,
2015-03-28 18:28:00,32.7,22.6,30.05,WNW,300,15.0,19.0,66,0.00,,---,0.00,VWS V13.01,2015-03-28 22:28:00,
2015-03-28 18:33:00,31.6,23.3,30.05,North,350,11.0,17.0,71,0.00,,---,0.00,VWS V13.01,2015-03-28 22:33:00,
2015-03-28 18:39:00,30.8,23.5,30.06,North,351,8.0,18.0,74,0.00,,---,0.00,VWS V13.01,2015-03-28 22:39:00,
2015-03-28 18:44:00,30.4,23.8,30.06,NW,319,3.0,18.0,76,0.00,,---,0.00,VWS V13.01,2015-03-28 22:44:00,
2015-03-28 18:49:00,30.3,24.0,30.06,NNW,329,6.0,18.0,77,0.00,,---,0.00,VWS V13.01,2015-03-28 22:49:00,
2015-03-28 18:54:00,30.2,23.9,30.06,NW,326,5.0,18.0,77,0.00,,---,0.00,VWS V13.01,2015-03-28 22:54:00,
2015-03-28 18:59:00,30.2,23.9,30.07,NW,312,6.0,18.0,77,0.00,,---,0.00,VWS V13.01,2015-03-28 22:59:00,
2015-03-28 19:04:00,30.3,23.7,30.07,NW,323,5.0,9.0,76,0.00,,---,0.00,VWS V13.01,2015-03-28 23:04:00,
2015-03-28 19:09:00,30.5,23.5,30.07,NW,306,6.0,12.0,75,0.00,,---,0.00,VWS V13.01,2015-03-28 23:09:00,
2015-03-28 19:14:00,30.7,22.8,30.07,NW,320,4.0,12.0,72,0.00,,---,0.00,VWS V13.01,2015-03-28 23:14:00,
2015-03-28 19:19:00,30.8,22.2,30.08,NW,309,6.0,12.0,70,0.00,,---,0.00,VWS V13.01,2015-03-28 23:19:00,
2015-03-28 19:24:00,30.9,21.6,30.08,NW,313,8.0,12.0,68,0.00,,---,0.00,VWS V13.01,2015-03-28 23:24:00,
2015-03-28 19:29:00,31.0,21.7,30.08,NW,306,5.0,12.0,68,0.00,,---,0.00,VWS V13.01,2015-03-28 23:29:00,
2015-03-28 19:34:00,31.0,21.3,30.08,NW,314,5.0,10.0,67,0.00,,---,0.00,VWS V13.01,2015-03-28 23:34:00,
2015-03-28 19:39:00,31.0,21.3,30.09,WNW,303,6.0,12.0,67,0.00,,---,0.00,VWS V13.01,2015-03-28 23:39:00,
2015-03-28 19:44:00,31.0,21.7,30.09,WNW,294,9.0,15.0,68,0.00,,---,0.00,VWS V13.01,2015-03-28 23:44:00,
2015-03-28 19:49:00,30.8,21.9,30.09,WNW,292,1.0,15.0,69,0.00,,---,0.00,VWS V13.01,2015-03-28 23:49:00,
2015-03-28 19:54:00,30.7,22.1,30.10,WNW,298,9.0,15.0,70,0.00,,---,0.00,VWS V13.01,2015-03-28 23:54:00,
2015-03-28 19:59:00,30.6,22.3,30.10,NW,311,4.0,15.0,71,0.00,,---,0.00,VWS V13.01,2015-03-28 23:59:00,
2015-03-28 20:05:00,30.5,22.2,30.11,NNW,331,7.0,9.0,71,0.00,,---,0.00,VWS V13.01,2015-03-29 00:05:00,